METEREN Weather Reports


time (UTC)temp
C
wind
direction
speed
KPH
gust
KPH
rain 1hr
cm
rain 24hr
cm
rain mn
cm
humidity
%
barometer
mb
20260506024527 8 360 11.3 20.9 0.00 0.00 0.00 94 1007.4
20260506023018 8 360 8.0 16.1 0.00 0.00 0.00 94 1007.5
20260506021533 8 360 9.7 17.7 0.00 0.00 0.00 94 1007.5
20260506020016 8 360 9.7 17.7 0.00 0.00 0.00 93 1007.5
20260506014521 8 360 11.3 17.7 0.00 0.00 0.00 92 1007.4
20260506013010 9 360 8.0 20.9 0.00 0.00 0.00 91 1007.5
20260506011518 9 360 3.2 19.3 0.00 0.00 0.00 89 1007.6
20260506010010 9 360 12.9 29.0 0.00 0.00 0.00 88 1007.8
20260506004505 10 360 9.7 17.7 0.00 0.00 0.00 87 1007.8
20260506003002 10 360 8.0 19.3 0.00 0.00 0.00 86 1007.9
20260506001623 10 360 9.7 14.5 0.00 0.00 0.00 86 1007.9
20260506000109 10 360 6.4 19.3 0.00 0.00 0.00 85 1008.0
20260505234612 10 360 8.0 14.5 0.00 0.00 0.00 85 1008.1
20260505233055 10 360 8.0 17.7 0.00 0.00 0.00 84 1008.1
20260505231552 10 360 4.8 19.3 0.00 0.00 0.00 84 1008.3
20260505230051 10 360 6.4 16.1 0.00 0.00 0.00 84 1008.3
20260505224550 10 360 8.0 19.3 0.00 0.00 0.00 83 1008.4
20260505223103 10 360 6.4 19.3 0.00 0.00 0.00 83 1008.4
20260505221549 10 360 11.3 20.9 0.00 0.00 0.00 83 1008.6
20260505220049 10 360 11.3 22.5 0.00 0.00 0.00 82 1008.5
20260505214556 10 360 8.0 17.7 0.00 0.00 0.00 82 1008.7
20260505213048 10 360 4.8 19.3 0.00 0.00 0.00 81 1008.7
20260505211556 11 360 6.4 14.5 0.00 0.00 0.00 81 1008.7
20260505210046 11 360 9.7 16.1 0.00 0.00 0.00 83 1008.8
20260505204546 11 360 3.2 19.3 0.00 0.00 0.00 83 1008.8
20260505203105 11 360 8.0 14.5 0.00 0.00 0.00 83 1008.8
20260505201545 11 360 8.0 22.5 0.00 0.00 0.00 82 1008.9
20260505200045 11 360 9.7 19.3 0.00 0.00 0.00 83 1008.8
20260505194545 11 360 6.4 12.9 0.00 0.00 0.00 82 1008.7
20260505193044 11 360 4.8 14.5 0.00 0.00 0.00 80 1008.7
20260505191550 11 360 8.0 19.3 0.00 0.00 0.00 79 1008.5
20260505190044 11 360 8.0 16.1 0.00 0.00 0.00 79 1008.4
20260505184549 11 360 11.3 24.1 0.00 0.00 0.00 78 1008.3
20260505183047 12 360 11.3 19.3 0.00 0.00 0.00 77 1008.3
20260505181541 12 360 11.3 22.5 0.00 0.00 0.00 76 1008.2
20260505180046 13 360 9.7 20.9 0.00 0.00 0.00 76 1008.1
20260505174540 13 360 9.7 24.1 0.00 0.00 0.00 75 1007.9
20260505173040 13 360 12.9 20.9 0.00 0.00 0.00 74 1008.0
20260505171538 13 360 9.7 17.7 0.00 0.00 0.00 77 1008.0
20260505170039 13 360 9.7 16.1 0.00 0.00 0.00 78 1008.0
20260505164538 13 360 8.0 19.3 0.00 0.00 0.00 78 1008.2
20260505163035 13 360 9.7 19.3 0.00 0.00 0.00 78 1008.2
20260505161534 13 360 6.4 14.5 0.00 0.00 0.00 79 1008.3
20260505153030 13 360 9.7 16.1 0.00 0.00 0.00 80 1008.6
20260505151534 13 360 8.0 19.3 0.00 0.00 0.00 81 1008.6
20260505124517 11 360 6.4 17.7 0.00 0.03 0.00 85 1009.7
20260505123014 12 360 9.7 16.1 0.00 0.03 0.00 87 1009.7
20260505121513 11 360 8.0 17.7 0.00 0.03 0.00 86 1009.8
20260505120015 11 360 8.0 17.7 0.00 0.71 0.00 87 1009.8
20260505114509 -17 0.0 0.0 0.00 0.71 0.00 1009.9
20260505113007 12 360 9.7 19.3 0.00 0.71 0.00 86 1009.9
20260505111515 11 360 11.3 20.9 0.00 0.71 0.00 87 1009.9
20260505101605 10 360 8.0 19.3 0.00 0.71 0.00 91 1010.2
20260505100100 10 360 9.7 19.3 0.00 0.71 0.00 91 1010.4
20260505094602 10 360 8.0 19.3 0.00 0.71 0.00 92 1010.4
20260505093057 10 360 9.7 19.3 0.00 0.71 0.00 92 1010.5
20260505091557 10 360 9.7 17.7 0.00 0.71 0.00 92 1010.5
20260505090058 10 360 11.3 17.7 0.00 0.71 0.00 93 1010.4
20260505084600 9 360 11.3 19.3 0.00 0.71 0.00 93 1010.5
20260505083104 9 360 8.0 24.1 0.00 0.71 0.00 94 1010.4
20260505081551 9 360 9.7 24.1 0.00 0.71 0.00 95 1010.5
20260505080049 9 360 14.5 24.1 0.00 0.71 0.00 95 1010.5
20260505074545 -17 0.0 0.0 0.00 0.71 0.00 1010.5
20260505073042 -17 0.0 0.0 0.00 0.71 0.00 1010.4
20260505071537 9 360 12.9 22.5 0.00 0.71 0.00 95 1010.4
20260505070046 9 360 3.2 16.1 0.00 0.71 0.00 95 1010.4
20260505064537 9 360 9.7 20.9 0.00 0.71 0.00 96 1010.6
20260505063034 9 360 11.3 19.3 0.00 0.71 0.00 96 1010.5
20260505061552 9 360 11.3 19.3 0.00 0.71 0.00 96 1010.7
20260505060028 9 360 9.7 22.5 0.00 0.71 0.00 96 1010.8
20260505054540 9 360 9.7 19.3 0.00 0.71 0.00 96 1010.9
20260505053026 9 360 4.8 17.7 0.00 0.71 0.00 96 1010.8
20260505051523 9 360 6.4 17.7 0.00 0.71 0.00 96 1010.6
20260505041518 9 360 9.7 17.7 0.00 0.71 0.00 96 1010.4
20260505040034 9 360 4.8 14.5 0.00 0.71 0.00 96 1010.4
20260505034523 9 360 6.4 17.7 0.00 0.71 0.00 95 1010.5
20260505033016 9 360 8.0 16.1 0.00 0.71 0.00 95 1010.4
20260505031513 9 360 8.0 17.7 0.00 0.71 0.00 95 1010.5
20260505030016 10 360 14.5 29.0 0.00 0.71 0.00 95 1010.5